Satellite-Ground Cal/Val Site Overpasses Predictions

Prediction of Satellite NPP Overpassing Cal/Val Site: Antarctic Dome C

Ground Cal/Val Site Location: Latitude: -75.10, Longitude: 123.35; Satellite-Ground Site NADIR distance within 100 km.

Table of predicted overpasses for the next 14.0 days since TLE Epoch: 7/7/2012
Interval Starting Time Ending Time Minimum Distance Time Minimum Distance (km)
1 07/07/2012 07:29:32 07/07/2012 07:30:01 07/07/2012 07:29:47 1.15
2 07/10/2012 14:53:00 07/10/2012 14:53:29 07/10/2012 14:53:14 18.90
3 07/11/2012 14:34:20 07/11/2012 14:34:33 07/11/2012 14:34:26 88.16
4 07/12/2012 07:35:51 07/12/2012 07:36:18 07/12/2012 07:36:04 36.10
5 07/13/2012 07:17:06 07/13/2012 07:17:25 07/13/2012 07:17:16 74.07
6 07/15/2012 14:59:22 07/15/2012 14:59:46 07/15/2012 14:59:34 56.14
7 07/16/2012 14:40:32 07/16/2012 14:40:56 07/16/2012 14:40:44 52.89
8 07/17/2012 07:42:13 07/17/2012 07:42:34 07/17/2012 07:42:23 71.67
9 07/18/2012 07:23:22 07/18/2012 07:23:49 07/18/2012 07:23:35 36.25
